Location: Poughquag
(41.6090°N, 73.6820°W)
Time: 14:48:04
(UTC-04:00)

Vanguard 2 - Pass Details

Date: 02 June 2020
Orbit: 552 x 2938 km, 32.9° (Epoch: 06 July)

Event Time Altitude Azimuth Distance (km) Brightness Sun altitude
Rises 00:43:33 0° 268° (W) 4,091 11.3 -26.1°
Enters shadow 00:47:03 - 253° (WSW) 2,976 10.4 -26.1°
Reaches altitude 10° 00:48:17 10° 245° (WSW) 2,639 - -26.1°
Maximum altitude 00:51:10 14° 216° (SW) 2,117 - -26.1°
Drops below altitude 10° 00:53:38 10° 185° (S) 2,161 - -26.1°
Sets 00:56:48 0° 158° (SSE) 2,858 - -26.1°
